WA4FG Weather Reports


Display with metric or nautical units.
time (UTC)temp
F
wind
direction
speed
MPH
gust
MPH
rain 1hr
in
rain 24hr
in
rain mn
in
humidity
%
barometer
mb
20260902021316 80 220 0.0 0.0 0.00 0.00 0.00 82 1017.4
20260902020758 80 220 0.0 0.0 0.00 0.00 0.00 82 1017.4
20260902020256 81 220 0.0 0.0 0.00 0.00 0.00 81 1017.2
20260902015204 81 220 0.0 0.0 0.00 0.00 0.00 79 1017.1
20260902014701 81 220 0.0 0.0 0.00 0.00 0.00 80 1017.0
20260902014144 81 220 0.0 0.0 0.00 0.00 0.00 80 1017.0
20260902013646 82 220 0.0 0.0 0.00 0.00 0.00 80 1017.0
20260902013118 82 220 0.0 0.0 0.00 0.00 0.00 78 1016.8
20260902012616 82 220 0.0 0.0 0.00 0.00 0.00 79 1016.8
20260902011538 83 220 0.0 0.0 0.00 0.00 0.00 76 1016.8
20260902011039 83 220 0.0 0.0 0.00 0.00 0.00 76 1016.7
20260902010528 83 220 0.0 0.0 0.00 0.00 0.00 76 1016.7
20260902010005 84 220 0.0 0.0 0.00 0.00 0.00 75 1016.6
20260902004946 84 220 0.0 0.0 0.00 0.00 0.00 76 1016.5
20260902004413 84 220 0.0 0.0 0.00 0.00 0.00 75 1016.5
20260902003858 85 220 0.0 0.0 0.00 0.00 0.00 73 1016.5
20260902003402 85 220 0.0 0.0 0.00 0.00 0.00 73 1016.4
20260902002836 85 220 0.0 0.0 0.00 0.00 0.00 72 1016.4
20260902001814 86 220 0.0 0.0 0.00 0.00 0.00 68 1016.5
20260902001249 87 220 0.0 0.0 0.00 0.00 0.00 67 1016.4
20260902000734 87 220 0.0 0.0 0.00 0.00 0.00 67 1016.5
20260902000207 87 220 0.0 0.0 0.00 0.00 0.00 67 1016.4
20260901235708 88 220 0.0 0.0 0.00 0.00 0.00 65 1016.5
20260901235148 88 220 0.0 0.0 0.00 0.00 0.00 63 1016.5
20260901234130 88 220 0.0 0.0 0.00 0.00 0.00 64 1016.5
20260901233630 89 220 0.0 0.0 0.00 0.00 0.00 63 1016.5
20260901233109 89 220 0.0 0.0 0.00 0.00 0.00 62 1016.6
20260901232553 89 220 0.0 0.0 0.00 0.00 0.00 61 1016.6
20260901232030 90 220 0.0 0.0 0.00 0.00 0.00 60 1016.7
20260901230457 91 220 0.0 0.0 0.00 0.00 0.00 56 1016.5
20260901225357 91 220 0.0 1.0 0.00 0.00 0.00 55 1016.6
20260901224855 92 220 0.0 1.0 0.00 0.00 0.00 57 1016.6
20260901224358 92 217 0.0 0.0 0.00 0.00 0.00 55 1016.5
20260901222258 92 288 0.0 0.0 0.00 0.00 0.00 52 1016.4
20260901221756 93 292 0.0 0.0 0.00 0.00 0.00 51 1016.4
20260901221238 93 284 0.0 0.0 0.00 0.00 0.00 54 1016.4
20260901220735 93 284 0.0 1.0 0.00 0.00 0.00 52 1016.4
20260901220245 93 176 0.0 1.0 0.00 0.00 0.00 51 1016.4
20260901215657 93 190 0.0 0.0 0.00 0.00 0.00 52 1016.4
20260901214650 94 190 0.0 1.0 0.00 0.00 0.00 52 1016.4
20260901214150 94 281 0.0 1.0 0.00 0.00 0.00 50 1016.4
20260901213640 94 202 0.0 0.0 0.00 0.00 0.00 50 1016.5
20260901212045 94 208 0.0 1.0 0.00 0.00 0.00 49 1016.5
20260901211027 94 81 0.0 4.0 0.00 0.00 0.00 47 1016.5
20260901210512 94 271 0.0 4.0 0.00 0.00 0.00 47 1016.6
20260901210000 94 26 0.0 1.0 0.00 0.00 0.00 46 1016.7
20260901205457 94 208 0.0 0.0 0.00 0.00 0.00 47 1016.7
20260901204955 94 207 0.0 0.0 0.00 0.00 0.00 48 1016.7
20260901203910 94 210 0.0 1.0 0.00 0.00 0.00 48 1016.9
20260901203408 94 210 0.0 1.0 0.00 0.00 0.00 49 1016.9
20260901202907 94 338 0.0 0.0 0.00 0.00 0.00 50 1016.9
20260901202406 94 338 0.0 0.0 0.00 0.00 0.00 51 1017.0
20260901201904 94 192 0.0 1.0 0.00 0.00 0.00 49 1017.1
20260901201339 94 181 0.0 0.0 0.00 0.00 0.00 51 1017.1
20260901200834 94 144 0.0 0.0 0.00 0.00 0.00 48 1017.2
20260901195317 95 314 0.0 0.0 0.00 0.00 0.00 48 1017.4
20260901194814 95 314 0.0 0.0 0.00 0.00 0.00 49 1017.4
20260901194311 95 318 0.0 0.0 0.00 0.00 0.00 47 1017.4
20260901193745 95 318 0.0 0.0 0.00 0.00 0.00 47 1017.4
20260901193221 96 318 0.0 0.0 0.00 0.00 0.00 47 1017.6
20260901192654 96 318 0.0 0.0 0.00 0.00 0.00 45 1017.6
20260901192143 96 39 0.0 1.0 0.00 0.00 0.00 46 1017.7
20260901191618 96 263 0.0 0.0 0.00 0.00 0.00 46 1017.7
20260901191104 96 263 0.0 0.0 0.00 0.00 0.00 47 1017.8
20260901190525 96 279 0.0 2.0 0.00 0.00 0.00 47 1017.8
20260901190009 96 211 0.0 2.0 0.00 0.00 0.00 46 1017.9
20260901185510 96 198 0.0 4.0 0.00 0.00 0.00 48 1018.0
20260901185008 95 223 0.0 4.0 0.00 0.00 0.00 49 1018.1
20260901184506 95 267 0.0 2.0 0.00 0.00 0.00 49 1018.1
20260901183939 94 182 0.0 2.0 0.00 0.00 0.00 50 1018.1
20260901183411 94 215 0.0 0.0 0.00 0.00 0.00 48 1018.2
20260901182912 95 217 0.0 0.0 0.00 0.00 0.00 51 1018.3
20260901181839 95 173 0.0 0.0 0.00 0.00 0.00 48 1018.4
20260901181306 95 173 0.0 0.0 0.00 0.00 0.00 51 1018.4
20260901180816 94 182 0.0 0.0 0.00 0.00 0.00 52 1018.4
20260901175710 95 182 0.0 0.0 0.00 0.00 0.00 49 1018.5
20260901175206 95 31 0.0 0.0 0.00 0.00 0.00 49 1018.6
20260901174638 95 27 0.0 0.0 0.00 0.00 0.00 51 1018.6
20260901174135 95 44 0.0 1.0 0.00 0.00 0.00 50 1018.7
20260901173608 95 34 0.0 1.0 0.00 0.00 0.00 49 1018.7
20260901173058 94 168 0.0 0.0 0.00 0.00 0.00 49 1018.7
20260901172559 94 205 0.0 1.0 0.00 0.00 0.00 51 1018.8
20260901172033 93 189 0.0 1.0 0.00 0.00 0.00 58 1018.9
20260901171510 93 186 0.0 0.0 0.00 0.00 0.00 56 1018.9
20260901171007 92 186 0.0 0.0 0.00 0.00 0.00 56 1018.9
20260901170439 93 186 0.0 1.0 0.00 0.00 0.00 57 1019.0
20260901165937 94 218 0.0 1.0 0.00 0.00 0.00 53 1019.1
20260901164845 94 151 0.0 0.0 0.00 0.00 0.00 54 1019.2
20260901164331 94 193 0.0 0.0 0.00 0.00 0.00 56 1019.3
20260901163809 93 194 0.0 0.0 0.00 0.00 0.00 56 1019.3
20260901162239 93 199 0.0 0.0 0.00 0.00 0.00 53 1019.3
20260901161740 93 199 0.0 0.0 0.00 0.00 0.00 54 1019.4
20260901155648 92 173 0.0 0.0 0.00 0.00 0.00 58 1019.6
20260901155126 91 173 0.0 0.0 0.00 0.00 0.00 57 1019.7
20260901154637 91 173 0.0 0.0 0.00 0.00 0.00 60 1019.7
20260901154106 91 185 0.0 0.0 0.00 0.00 0.00 59 1019.7
20260901153607 91 185 0.0 0.0 0.00 0.00 0.00 64 1019.6
20260901153043 90 185 0.0 0.0 0.00 0.00 0.00 60 1019.7
20260901152539 91 186 0.0 0.0 0.00 0.00 0.00 68 1019.7
20260901151521 89 184 0.0 0.0 0.00 0.00 0.00 67 1019.8
20260901150942 89 184 0.0 0.0 0.00 0.00 0.00 72 1019.9
20260901145927 88 184 0.0 0.0 0.00 0.00 0.00 70 1019.8
20260901145425 87 184 0.0 0.0 0.00 0.00 0.00 70 1019.9
20260901144921 87 184 0.0 0.0 0.00 0.00 0.00 73 1019.9
20260901144421 86 184 0.0 0.0 0.00 0.00 0.00 73 1019.9
20260901143911 85 184 0.0 0.0 0.00 0.00 0.00 73 1019.9
20260901143353 84 184 0.0 0.0 0.00 0.00 0.00 77 1019.9
20260901142850 84 184 0.0 0.0 0.00 0.00 0.00 76 1020.0
20260901142353 83 184 0.0 0.0 0.00 0.00 0.00 82 1020.0
20260901141846 82 184 0.0 0.0 0.00 0.00 0.00 83 1020.0
20260901141345 81 184 0.0 0.0 0.00 0.00 0.00 85 1019.9
20260901140257 79 183 0.0 1.0 0.00 0.00 0.00 90 1020.0
20260901135214 78 183 0.0 1.0 0.00 0.00 0.00 93 1019.9
20260901134654 77 184 0.0 0.0 0.00 0.00 0.00 97 1020.0
20260901134127 77 184 0.0 0.0 0.00 0.00 0.00 97 1020.0
20260901133053 76 182 0.0 0.0 0.00 0.00 0.00 99 1020.0
20260901132553 76 182 0.0 0.0 0.00 0.00 0.00 100 1020.0
20260901132054 75 182 0.0 0.0 0.00 0.00 0.00 100 1020.0
20260901130514 75 182 0.0 0.0 0.00 0.00 0.00 100 1020.0
20260901125950 75 182 0.0 0.0 0.00 0.00 0.00 100 1020.0
20260901124929 74 182 0.0 0.0 0.00 0.00 0.00 100 1019.9
20260901124425 74 182 0.0 0.0 0.00 0.00 0.00 100 1019.8
20260901123925 74 182 0.0 0.0 0.00 0.00 0.00 100 1019.9
20260901122417 73 182 0.0 0.0 0.00 0.00 0.00 100 1019.6
20260901121906 73 182 0.0 0.0 0.00 0.00 0.00 100 1019.6
20260901121337 73 182 0.0 0.0 0.00 0.00 0.00 100 1019.5
20260901120812 73 182 0.0 0.0 0.00 0.00 0.00 100 1019.5
20260901120303 73 182 0.0 0.0 0.00 0.00 0.00 100 1019.5
20260901115736 73 182 0.0 0.0 0.00 0.00 0.00 100 1019.3
20260901114711 73 182 0.0 0.0 0.00 0.00 0.00 100 1019.2
20260901114209 73 182 0.0 0.0 0.00 0.00 0.00 100 1019.2
20260901113634 73 182 0.0 0.0 0.00 0.00 0.00 100 1019.1
20260901113119 73 182 0.0 0.0 0.00 0.00 0.00 100 1019.0
20260901112617 73 182 0.0 0.0 0.00 0.00 0.00 100 1018.9
20260901112105 73 182 0.0 0.0 0.00 0.00 0.00 100 1019.0
20260901111603 73 182 0.0 0.0 0.00 0.00 0.00 100 1018.9
20260901111035 73 182 0.0 0.0 0.00 0.00 0.00 100 1018.9
20260901110532 73 182 0.0 0.0 0.00 0.00 0.00 100 1018.8
20260901110012 73 182 0.0 0.0 0.00 0.00 0.00 100 1018.7
20260901105510 73 182 0.0 0.0 0.00 0.00 0.00 100 1018.7
20260901105007 74 182 0.0 0.0 0.00 0.00 0.00 100 1018.7
20260901104505 74 182 0.0 0.0 0.00 0.00 0.00 100 1018.6
20260901103433 74 182 0.0 0.0 0.00 0.00 0.00 100 1018.6
20260901102930 74 182 0.0 0.0 0.00 0.00 0.00 100 1018.6
20260901101857 74 182 0.0 0.0 0.00 0.00 0.00 100 1018.5
20260901101353 74 182 0.0 0.0 0.00 0.00 0.00 99 1018.5
20260901100854 74 182 0.0 0.0 0.00 0.00 0.00 99 1018.5
20260901100351 74 182 0.0 0.0 0.00 0.00 0.00 99 1018.5
20260901095852 74 182 0.0 0.0 0.00 0.00 0.00 99 1018.5
20260901095349 74 182 0.0 0.0 0.00 0.00 0.00 99 1018.5
20260901094847 74 182 0.0 0.0 0.00 0.00 0.00 99 1018.5
20260901094321 74 182 0.0 0.0 0.00 0.00 0.00 99 1018.5
20260901093755 74 182 0.0 0.0 0.00 0.00 0.00 99 1018.5
20260901093239 74 182 0.0 0.0 0.00 0.00 0.00 99 1018.4
20260901092740 74 182 0.0 0.0 0.00 0.00 0.00 99 1018.4
20260901092225 74 182 0.0 0.0 0.00 0.00 0.00 99 1018.3
20260901091712 74 182 0.0 0.0 0.00 0.00 0.00 99 1018.3
20260901091144 74 182 0.0 0.0 0.00 0.00 0.00 99 1018.4
20260901090631 74 182 0.0 0.0 0.00 0.00 0.00 99 1018.3
20260901085534 74 182 0.0 0.0 0.00 0.00 0.00 99 1018.2
20260901084505 74 182 0.0 0.0 0.00 0.00 0.00 98 1018.1
20260901083434 74 182 0.0 0.0 0.00 0.00 0.00 98 1018.1
20260901082915 74 182 0.0 0.0 0.00 0.00 0.00 98 1018.1
20260901082426 74 182 0.0 0.0 0.00 0.00 0.00 98 1018.1
20260901081846 74 182 0.0 0.0 0.00 0.00 0.00 98 1018.0
20260901080816 75 182 0.0 0.0 0.00 0.00 0.00 98 1017.9
20260901080249 75 182 0.0 0.0 0.00 0.00 0.00 98 1017.9
20260901075744 75 182 0.0 0.0 0.00 0.00 0.00 98 1017.9
20260901075231 75 182 0.0 0.0 0.00 0.00 0.00 97 1017.9
20260901074728 75 182 0.0 0.0 0.00 0.00 0.00 97 1017.9
20260901074217 75 182 0.0 0.0 0.00 0.00 0.00 97 1017.8
20260901073702 75 182 0.0 0.0 0.00 0.00 0.00 97 1017.9
20260901072647 75 182 0.0 0.0 0.00 0.00 0.00 97 1017.9
20260901072133 75 182 0.0 0.0 0.00 0.00 0.00 97 1017.8
20260901071630 75 182 0.0 0.0 0.00 0.00 0.00 97 1017.8
20260901071102 75 182 0.0 0.0 0.00 0.00 0.00 97 1017.8
20260901070600 75 182 0.0 0.0 0.00 0.00 0.00 97 1017.8
20260901065548 75 182 0.0 0.0 0.00 0.00 0.00 97 1017.7
20260901065039 75 182 0.0 0.0 0.00 0.00 0.00 97 1017.8
20260901064535 75 182 0.0 0.0 0.00 0.00 0.00 97 1017.8
20260901064035 75 182 0.0 0.0 0.00 0.00 0.00 97 1017.9
20260901063533 75 182 0.0 0.0 0.00 0.00 0.00 97 1017.9
20260901063017 75 182 0.0 0.0 0.00 0.00 0.00 97 1018.0
20260901062516 76 186 0.0 0.0 0.00 0.00 0.00 97 1018.0
20260901062015 76 186 0.0 0.0 0.00 0.00 0.00 97 1018.0
20260901061518 76 186 0.0 0.0 0.00 0.00 0.00 96 1018.0
20260901060959 76 186 0.0 0.0 0.00 0.00 0.00 96 1018.1
20260901055435 76 186 0.0 0.0 0.00 0.00 0.00 96 1018.1
20260901054914 76 186 0.0 0.0 0.00 0.00 0.00 96 1018.0
20260901054412 76 186 0.0 0.0 0.00 0.00 0.00 96 1018.1
20260901052358 76 186 0.0 0.0 0.00 0.00 0.00 95 1018.1
20260901051856 76 186 0.0 0.0 0.00 0.00 0.00 95 1018.2
20260901051356 76 186 0.0 0.0 0.00 0.00 0.00 94 1018.1
20260901050843 76 186 0.0 0.0 0.00 0.00 0.00 94 1018.0
20260901050321 76 186 0.0 0.0 0.00 0.00 0.00 94 1018.0
20260901045819 76 186 0.0 0.0 0.00 0.00 0.00 93 1018.0
20260901045306 76 186 0.0 0.0 0.00 0.00 0.00 93 1018.1
20260901044805 77 186 0.0 0.0 0.00 0.00 0.00 93 1018.0
20260901044302 77 186 0.0 0.0 0.00 0.00 0.00 93 1018.1
20260901043800 77 186 0.0 0.0 0.00 0.00 0.00 93 1018.1
20260901043235 77 186 0.0 0.0 0.00 0.00 0.00 93 1018.1
20260901042736 77 186 0.0 0.0 0.00 0.00 0.00 92 1018.1
20260901042226 77 186 0.0 0.0 0.00 0.00 0.00 92 1018.1
20260901041728 77 186 0.0 0.0 0.00 0.00 0.00 92 1018.1
20260901041200 77 186 0.0 0.0 0.00 0.00 0.00 91 1018.1
20260901040700 77 186 0.0 0.0 0.00 0.00 0.00 91 1018.1
20260901040135 77 186 0.0 0.0 0.00 0.00 0.00 91 1018.1
20260901035615 77 186 0.0 0.0 0.00 0.00 0.00 91 1018.2
20260901035122 78 186 0.0 0.0 0.00 0.00 0.00 91 1018.2
20260901034603 78 186 0.0 0.0 0.00 0.00 0.00 91 1018.2
20260901034103 78 186 0.0 0.0 0.00 0.00 0.00 91 1018.2
20260901033556 78 186 0.0 0.0 0.00 0.00 0.00 91 1018.2
20260901033053 78 186 0.0 0.0 0.00 0.00 0.00 90 1018.2
20260901032552 78 186 0.0 0.0 0.00 0.00 0.00 90 1018.1
20260901031549 78 186 0.0 0.0 0.00 0.00 0.00 89 1018.2
20260901031041 78 186 0.0 0.0 0.00 0.00 0.00 89 1018.3
20260901030036 79 186 0.0 0.0 0.00 0.00 0.00 88 1018.3
20260901025512 79 186 0.0 0.0 0.00 0.00 0.00 88 1018.3
20260901024943 79 186 0.0 0.0 0.00 0.00 0.00 87 1018.3
20260901024439 79 186 0.0 0.0 0.00 0.00 0.00 87 1018.3
20260901023437 79 186 0.0 0.0 0.00 0.00 0.00 86 1018.2
20260901022915 79 186 0.0 0.0 0.00 0.00 0.00 86 1018.2
20260901022351 80 186 0.0 0.0 0.00 0.00 0.00 86 1018.2
20260901021839 80 186 0.0 0.0 0.00 0.00 0.00 86 1018.2